Year,Month,Day,Hour,Minute,Value (Times are PST for temperature in C)
2010,04,15,00,00,5.60
2010,04,15,00,01,5.60
2010,04,15,00,02,5.60
2010,04,15,00,03,5.60
2010,04,15,00,04,5.60
2010,04,15,00,05,5.60
2010,04,15,00,06,5.60
2010,04,15,00,07,5.60
2010,04,15,00,08,5.50
2010,04,15,00,09,5.50
2010,04,15,00,10,5.50
2010,04,15,00,11,5.50
2010,04,15,00,12,5.50
2010,04,15,00,13,5.50
2010,04,15,00,14,5.50
2010,04,15,00,15,5.50
2010,04,15,00,16,5.60
2010,04,15,00,17,5.60
2010,04,15,00,18,5.60
2010,04,15,00,19,5.50
2010,04,15,00,20,5.50
2010,04,15,00,21,5.50
2010,04,15,00,22,5.50
2010,04,15,00,23,5.50
2010,04,15,00,24,5.50
2010,04,15,00,25,5.40
2010,04,15,00,26,5.40
2010,04,15,00,27,5.40
2010,04,15,00,28,5.40
2010,04,15,00,29,5.40
2010,04,15,00,30,5.40
2010,04,15,00,31,5.40
2010,04,15,00,32,5.40
2010,04,15,00,33,5.40
2010,04,15,00,34,5.30
2010,04,15,00,35,5.30
2010,04,15,00,36,5.30
2010,04,15,00,37,5.30
2010,04,15,00,38,5.30
2010,04,15,00,39,5.30
2010,04,15,00,40,5.30
2010,04,15,00,41,5.30
2010,04,15,00,42,5.30
2010,04,15,00,43,5.30
2010,04,15,00,44,5.30
2010,04,15,00,45,5.30
2010,04,15,00,46,5.30
2010,04,15,00,47,5.30
2010,04,15,00,48,5.30
2010,04,15,00,49,5.30
2010,04,15,00,50,5.30
2010,04,15,00,51,5.20
2010,04,15,00,52,5.20
2010,04,15,00,53,5.20
2010,04,15,00,54,5.20
2010,04,15,00,55,5.20
2010,04,15,00,56,5.20
2010,04,15,00,57,5.20
2010,04,15,00,58,5.20
2010,04,15,00,59,5.20
2010,04,15,01,00,5.20
2010,04,15,01,01,5.20
2010,04,15,01,02,5.20
2010,04,15,01,03,5.20
2010,04,15,01,04,5.20
2010,04,15,01,05,5.20
2010,04,15,01,06,5.20
2010,04,15,01,07,5.20
2010,04,15,01,08,5.20
2010,04,15,01,09,5.10
2010,04,15,01,10,5.10
2010,04,15,01,11,5.10
2010,04,15,01,12,5.10
2010,04,15,01,13,5.10
2010,04,15,01,14,5.10
2010,04,15,01,15,5.10
2010,04,15,01,16,5.10
2010,04,15,01,17,5.10
2010,04,15,01,18,5.10
2010,04,15,01,19,5.00
2010,04,15,01,20,5.00
2010,04,15,01,21,5.00
2010,04,15,01,22,5.00
2010,04,15,01,23,5.00
2010,04,15,01,24,5.10
2010,04,15,01,25,5.10
2010,04,15,01,26,5.10
2010,04,15,01,27,5.10
2010,04,15,01,28,5.10
2010,04,15,01,29,5.10
2010,04,15,01,30,5.10
2010,04,15,01,31,5.10
2010,04,15,01,32,5.10
2010,04,15,01,33,5.10
2010,04,15,01,34,5.10
2010,04,15,01,35,5.10
2010,04,15,01,36,5.10
2010,04,15,01,37,5.10
2010,04,15,01,38,5.10
2010,04,15,01,39,5.00
2010,04,15,01,40,5.00
2010,04,15,01,41,5.00
2010,04,15,01,42,5.00
2010,04,15,01,43,5.00
2010,04,15,01,44,5.00
2010,04,15,01,45,4.90
2010,04,15,01,46,4.90
2010,04,15,01,47,4.90
2010,04,15,01,48,4.90
2010,04,15,01,49,4.90
2010,04,15,01,50,4.90
2010,04,15,01,51,4.90
2010,04,15,01,52,4.90
2010,04,15,01,53,4.90
2010,04,15,01,54,4.90
2010,04,15,01,55,4.90
2010,04,15,01,56,4.90
2010,04,15,01,57,4.90
2010,04,15,01,58,4.90
2010,04,15,01,59,4.90
2010,04,15,02,00,4.90
2010,04,15,02,01,4.90
2010,04,15,02,02,4.90
2010,04,15,02,03,4.90
2010,04,15,02,04,4.90
2010,04,15,02,05,4.90
2010,04,15,02,06,4.90
2010,04,15,02,07,4.80
2010,04,15,02,08,4.80
2010,04,15,02,09,4.80
2010,04,15,02,10,4.80
2010,04,15,02,11,4.80
2010,04,15,02,12,4.80
2010,04,15,02,13,4.80
2010,04,15,02,14,4.80
2010,04,15,02,15,4.80
2010,04,15,02,16,4.80
2010,04,15,02,17,4.80
2010,04,15,02,18,4.80
2010,04,15,02,19,4.80
2010,04,15,02,20,4.80
2010,04,15,02,21,4.80
2010,04,15,02,22,4.70
2010,04,15,02,23,4.70
2010,04,15,02,24,4.70
2010,04,15,02,25,4.70
2010,04,15,02,26,4.70
2010,04,15,02,27,4.70
2010,04,15,02,28,4.70
2010,04,15,02,29,4.70
2010,04,15,02,30,4.70
2010,04,15,02,31,4.70
2010,04,15,02,32,4.70
2010,04,15,02,33,4.70
2010,04,15,02,34,4.70
2010,04,15,02,35,4.70
2010,04,15,02,36,4.70
2010,04,15,02,37,4.80
2010,04,15,02,38,4.80
2010,04,15,02,39,4.80
2010,04,15,02,40,4.80
2010,04,15,02,41,4.80
2010,04,15,02,42,4.80
2010,04,15,02,43,4.70
2010,04,15,02,44,4.70
2010,04,15,02,45,4.70
2010,04,15,02,46,4.70
2010,04,15,02,47,4.70
2010,04,15,02,48,4.70
2010,04,15,02,49,4.70
2010,04,15,02,50,4.70
2010,04,15,02,51,4.70
2010,04,15,02,52,4.70
2010,04,15,02,53,4.70
2010,04,15,02,54,4.60
2010,04,15,02,55,4.60
2010,04,15,02,56,4.60
2010,04,15,02,57,4.60
2010,04,15,02,58,4.60
2010,04,15,02,59,4.60
2010,04,15,03,00,4.60
2010,04,15,03,01,4.60
2010,04,15,03,02,4.60
2010,04,15,03,03,4.60
2010,04,15,03,04,4.60
2010,04,15,03,05,4.60
2010,04,15,03,06,4.60
2010,04,15,03,07,4.60
2010,04,15,03,08,4.60
2010,04,15,03,09,4.60
2010,04,15,03,10,4.60
2010,04,15,03,11,4.60
2010,04,15,03,12,4.60
2010,04,15,03,13,4.60
2010,04,15,03,14,4.60
2010,04,15,03,15,4.60
2010,04,15,03,16,4.60
2010,04,15,03,17,4.60
2010,04,15,03,18,4.60
2010,04,15,03,19,4.60
2010,04,15,03,20,4.60
2010,04,15,03,21,4.60
2010,04,15,03,22,4.60
2010,04,15,03,23,4.60
2010,04,15,03,24,4.60
2010,04,15,03,25,4.60
2010,04,15,03,26,4.60
2010,04,15,03,27,4.60
2010,04,15,03,28,4.60
2010,04,15,03,29,4.60
2010,04,15,03,30,4.60
2010,04,15,03,31,4.60
2010,04,15,03,32,4.60
2010,04,15,03,33,4.60
2010,04,15,03,34,4.60
2010,04,15,03,35,4.60
2010,04,15,03,36,4.60
2010,04,15,03,37,4.60
2010,04,15,03,38,4.60
2010,04,15,03,39,4.60
2010,04,15,03,40,4.60
2010,04,15,03,41,4.60
2010,04,15,03,42,4.50
2010,04,15,03,43,4.50
2010,04,15,03,44,4.50
2010,04,15,03,45,4.50
2010,04,15,03,46,4.50
2010,04,15,03,47,4.50
2010,04,15,03,48,4.50
2010,04,15,03,49,4.50
2010,04,15,03,50,4.50
2010,04,15,03,51,4.50
2010,04,15,03,52,4.50
2010,04,15,03,53,4.50
2010,04,15,03,54,4.60
2010,04,15,03,55,4.50
2010,04,15,03,56,4.50
2010,04,15,03,57,4.50
2010,04,15,03,58,4.50
2010,04,15,03,59,4.50
2010,04,15,04,00,4.50
2010,04,15,04,01,4.50
2010,04,15,04,02,4.50
2010,04,15,04,03,4.50
2010,04,15,04,04,4.50
2010,04,15,04,05,4.50
2010,04,15,04,06,4.50
2010,04,15,04,07,4.50
2010,04,15,04,08,4.50
2010,04,15,04,09,4.50
2010,04,15,04,10,4.50
2010,04,15,04,11,4.50
2010,04,15,04,12,4.50
2010,04,15,04,13,4.50
2010,04,15,04,14,4.50
2010,04,15,04,15,4.50
2010,04,15,04,16,4.50
2010,04,15,04,17,4.50
2010,04,15,04,18,4.50
2010,04,15,04,19,4.50
2010,04,15,04,20,4.60
2010,04,15,04,21,4.60
2010,04,15,04,22,4.60
2010,04,15,04,23,4.60
2010,04,15,04,24,4.60
2010,04,15,04,25,4.70
2010,04,15,04,26,4.70
2010,04,15,04,27,4.70
2010,04,15,04,28,4.70
2010,04,15,04,29,4.70
2010,04,15,04,30,4.70
2010,04,15,04,31,4.70
2010,04,15,04,32,4.70
2010,04,15,04,33,4.70
2010,04,15,04,34,4.70
2010,04,15,04,35,4.70
2010,04,15,04,36,4.70
2010,04,15,04,37,4.70
2010,04,15,04,38,4.70
2010,04,15,04,39,4.70
2010,04,15,04,40,4.70
2010,04,15,04,41,4.70
2010,04,15,04,42,4.80
2010,04,15,04,43,4.80
2010,04,15,04,44,4.70
2010,04,15,04,45,4.70
2010,04,15,04,46,4.80
2010,04,15,04,47,4.80
2010,04,15,04,48,4.80
2010,04,15,04,49,4.80
2010,04,15,04,50,4.80
2010,04,15,04,51,4.80
2010,04,15,04,52,4.80
2010,04,15,04,53,4.80
2010,04,15,04,54,4.80
2010,04,15,04,55,4.80
2010,04,15,04,56,4.80
2010,04,15,04,57,4.80
2010,04,15,04,58,4.80
2010,04,15,04,59,4.80
2010,04,15,05,00,4.80
2010,04,15,05,01,4.80
2010,04,15,05,02,4.80
2010,04,15,05,03,4.80
2010,04,15,05,04,4.80
2010,04,15,05,05,4.80
2010,04,15,05,06,4.80
2010,04,15,05,07,4.80
2010,04,15,05,08,4.80
2010,04,15,05,09,4.80
2010,04,15,05,10,4.80
2010,04,15,05,11,4.80
2010,04,15,05,12,4.80
2010,04,15,05,13,4.80
2010,04,15,05,14,4.80
2010,04,15,05,15,4.70
2010,04,15,05,16,4.70
2010,04,15,05,17,4.80
2010,04,15,05,18,4.80
2010,04,15,05,19,4.80
2010,04,15,05,20,4.80
2010,04,15,05,21,4.80
2010,04,15,05,22,4.80
2010,04,15,05,23,4.80
2010,04,15,05,24,4.80
2010,04,15,05,25,4.80
2010,04,15,05,26,4.80
2010,04,15,05,27,4.90
2010,04,15,05,28,4.90
2010,04,15,05,29,4.90
2010,04,15,05,30,4.80
2010,04,15,05,31,4.80
2010,04,15,05,32,4.80
2010,04,15,05,33,4.80
2010,04,15,05,34,4.80
2010,04,15,05,35,4.80
2010,04,15,05,36,4.80
2010,04,15,05,37,4.80
2010,04,15,05,38,4.80
2010,04,15,05,39,4.80
2010,04,15,05,40,4.80
2010,04,15,05,41,4.90
2010,04,15,05,42,4.90
2010,04,15,05,43,4.90
2010,04,15,05,44,5.00
2010,04,15,05,45,5.00
2010,04,15,05,46,5.10
2010,04,15,05,47,5.10
2010,04,15,05,48,5.20
2010,04,15,05,49,5.20
2010,04,15,05,50,5.20
2010,04,15,05,51,5.20
2010,04,15,05,52,5.20
2010,04,15,05,53,5.20
2010,04,15,05,54,5.20
2010,04,15,05,55,5.10
2010,04,15,05,56,5.10
2010,04,15,05,57,5.10
2010,04,15,05,58,5.00
2010,04,15,05,59,5.00
2010,04,15,06,00,5.00
2010,04,15,06,01,5.00
2010,04,15,06,02,5.00
2010,04,15,06,03,4.90
2010,04,15,06,04,4.90
2010,04,15,06,05,4.90
2010,04,15,06,06,4.90
2010,04,15,06,07,4.90
2010,04,15,06,08,4.90
2010,04,15,06,09,5.00
2010,04,15,06,10,5.00
2010,04,15,06,11,4.90
2010,04,15,06,12,4.90
2010,04,15,06,13,5.00
2010,04,15,06,14,5.00
2010,04,15,06,15,5.00
2010,04,15,06,16,4.90
2010,04,15,06,17,4.90
2010,04,15,06,18,5.00
2010,04,15,06,19,5.00
2010,04,15,06,20,5.00
2010,04,15,06,21,5.00
2010,04,15,06,22,5.10
2010,04,15,06,23,5.00
2010,04,15,06,24,5.10
2010,04,15,06,25,5.00
2010,04,15,06,26,5.00
2010,04,15,06,27,5.00
2010,04,15,06,28,5.10
2010,04,15,06,29,5.10
2010,04,15,06,30,5.10
2010,04,15,06,31,5.10
2010,04,15,06,32,5.10
2010,04,15,06,33,5.10
2010,04,15,06,34,5.10
2010,04,15,06,35,5.10
2010,04,15,06,36,5.10
2010,04,15,06,37,5.10
2010,04,15,06,38,5.10
2010,04,15,06,39,5.20
2010,04,15,06,40,5.20
2010,04,15,06,41,5.10
2010,04,15,06,42,5.10
2010,04,15,06,43,5.10
2010,04,15,06,44,5.00
2010,04,15,06,45,5.00
2010,04,15,06,46,5.00
2010,04,15,06,47,4.90
2010,04,15,06,48,4.90
2010,04,15,06,49,4.90
2010,04,15,06,50,5.00
2010,04,15,06,51,5.10
2010,04,15,06,52,5.20
2010,04,15,06,53,5.20
2010,04,15,06,54,5.20
2010,04,15,06,55,5.10
2010,04,15,06,56,5.10
2010,04,15,06,57,5.10
2010,04,15,06,58,5.10
2010,04,15,06,59,5.20
2010,04,15,07,00,5.30
2010,04,15,07,01,5.40
2010,04,15,07,02,5.50
2010,04,15,07,03,5.40
2010,04,15,07,04,5.40
2010,04,15,07,05,5.40
2010,04,15,07,06,5.40
2010,04,15,07,07,5.30
2010,04,15,07,08,5.30
2010,04,15,07,09,5.30
2010,04,15,07,10,5.30
2010,04,15,07,11,5.30
2010,04,15,07,12,5.30
2010,04,15,07,13,5.30
2010,04,15,07,14,5.30
2010,04,15,07,15,5.40
2010,04,15,07,16,5.40
2010,04,15,07,17,5.40
2010,04,15,07,18,5.40
2010,04,15,07,19,5.40
2010,04,15,07,20,5.40
2010,04,15,07,21,5.40
2010,04,15,07,22,5.40
2010,04,15,07,23,5.40
2010,04,15,07,24,5.40
2010,04,15,07,25,5.40
2010,04,15,07,26,5.40
2010,04,15,07,27,5.50
2010,04,15,07,28,5.50
2010,04,15,07,29,5.60
2010,04,15,07,30,5.70
2010,04,15,07,31,5.80
2010,04,15,07,32,5.90
2010,04,15,07,33,5.90
2010,04,15,07,34,5.90
2010,04,15,07,35,5.90
2010,04,15,07,36,6.00
2010,04,15,07,37,6.00
2010,04,15,07,38,6.10
2010,04,15,07,39,6.10
2010,04,15,07,40,6.20
2010,04,15,07,41,6.20
2010,04,15,07,42,6.30
2010,04,15,07,43,6.30
2010,04,15,07,44,6.40
2010,04,15,07,45,6.40
2010,04,15,07,46,6.50
2010,04,15,07,47,6.60
2010,04,15,07,48,6.70
2010,04,15,07,49,6.80
2010,04,15,07,50,6.80
2010,04,15,07,51,6.90
2010,04,15,07,52,7.00
2010,04,15,07,53,7.10
2010,04,15,07,54,7.10
2010,04,15,07,55,7.20
2010,04,15,07,56,7.30
2010,04,15,07,57,7.40
2010,04,15,07,58,7.60
2010,04,15,07,59,7.70
2010,04,15,08,00,7.90
2010,04,15,08,01,8.00
2010,04,15,08,02,8.20
2010,04,15,08,03,8.30
2010,04,15,08,04,8.40
2010,04,15,08,05,8.60
2010,04,15,08,06,8.70
2010,04,15,08,07,8.80
2010,04,15,08,08,8.90
2010,04,15,08,09,9.00
2010,04,15,08,10,9.10
2010,04,15,08,11,9.20
2010,04,15,08,12,9.30
2010,04,15,08,13,9.50
2010,04,15,08,14,9.60
2010,04,15,08,15,9.70
2010,04,15,08,16,9.80
2010,04,15,08,17,9.90
2010,04,15,08,18,10.10
2010,04,15,08,19,10.20
2010,04,15,08,20,10.40
2010,04,15,08,21,10.50
2010,04,15,08,22,10.70
2010,04,15,08,23,10.80
2010,04,15,08,24,10.90
2010,04,15,08,25,10.90
2010,04,15,08,26,11.10
2010,04,15,08,27,11.20
2010,04,15,08,28,11.20
2010,04,15,08,29,11.30
2010,04,15,08,30,11.30
2010,04,15,08,31,11.40
2010,04,15,08,32,11.50
2010,04,15,08,33,11.60
2010,04,15,08,34,11.70
2010,04,15,08,35,11.80
2010,04,15,08,36,11.80
2010,04,15,08,37,11.90
2010,04,15,08,38,11.90
2010,04,15,08,39,12.10
2010,04,15,08,40,12.10
2010,04,15,08,41,12.10
2010,04,15,08,42,12.20
2010,04,15,08,43,12.20
2010,04,15,08,44,12.30
2010,04,15,08,45,12.40
2010,04,15,08,46,12.40
2010,04,15,08,47,12.50
2010,04,15,08,48,12.60
2010,04,15,08,49,12.70
2010,04,15,08,50,12.80
2010,04,15,08,51,12.90
2010,04,15,08,52,13.00
2010,04,15,08,53,13.00
2010,04,15,08,54,13.00
2010,04,15,08,55,13.10
2010,04,15,08,56,13.00
2010,04,15,08,57,13.00
2010,04,15,08,58,12.90
2010,04,15,08,59,12.80
2010,04,15,09,00,12.80
2010,04,15,09,01,12.80
2010,04,15,09,02,12.80
2010,04,15,09,03,12.80
2010,04,15,09,04,12.80
2010,04,15,09,05,12.80
2010,04,15,09,06,12.80
2010,04,15,09,07,12.80
2010,04,15,09,08,12.90
2010,04,15,09,09,12.90
2010,04,15,09,10,13.00
2010,04,15,09,11,13.10
2010,04,15,09,12,13.10
2010,04,15,09,13,13.20
2010,04,15,09,14,13.20
2010,04,15,09,15,13.20
2010,04,15,09,16,13.10
2010,04,15,09,17,13.00
2010,04,15,09,18,12.90
2010,04,15,09,19,12.80
2010,04,15,09,20,12.70
2010,04,15,09,21,12.70
2010,04,15,09,22,12.70
2010,04,15,09,23,12.80
2010,04,15,09,24,12.90
2010,04,15,09,25,12.90
2010,04,15,09,26,12.90
2010,04,15,09,27,12.90
2010,04,15,09,28,12.90
2010,04,15,09,29,12.80
2010,04,15,09,30,12.70
2010,04,15,09,31,12.60
2010,04,15,09,32,12.50
2010,04,15,09,33,12.40
2010,04,15,09,34,12.40
2010,04,15,09,35,12.50
2010,04,15,09,36,12.60
2010,04,15,09,37,12.70
2010,04,15,09,38,12.80
2010,04,15,09,39,12.90
2010,04,15,09,40,13.00
2010,04,15,09,41,13.10
2010,04,15,09,42,13.20
2010,04,15,09,43,13.20
2010,04,15,09,44,13.20
2010,04,15,09,45,13.30
2010,04,15,09,46,13.30
2010,04,15,09,47,13.30
2010,04,15,09,48,13.30
2010,04,15,09,49,13.40
2010,04,15,09,50,13.50
2010,04,15,09,51,13.60
2010,04,15,09,52,13.80
2010,04,15,09,53,13.90
2010,04,15,09,54,13.90
2010,04,15,09,55,13.80
2010,04,15,09,56,13.80
2010,04,15,09,57,13.70
2010,04,15,09,58,13.60
2010,04,15,09,59,13.60
2010,04,15,10,00,13.50
2010,04,15,10,01,13.50
2010,04,15,10,02,13.50
2010,04,15,10,03,13.50
2010,04,15,10,04,13.40
2010,04,15,10,05,13.30
2010,04,15,10,06,13.20
2010,04,15,10,07,13.10
2010,04,15,10,08,12.90
2010,04,15,10,09,12.80
2010,04,15,10,10,12.70
2010,04,15,10,11,12.70
2010,04,15,10,12,12.70
2010,04,15,10,13,12.80
2010,04,15,10,14,12.90
2010,04,15,10,15,12.90
2010,04,15,10,16,13.00
2010,04,15,10,17,13.20
2010,04,15,10,18,13.30
2010,04,15,10,19,13.40
2010,04,15,10,20,13.50
2010,04,15,10,21,13.60
2010,04,15,10,22,13.70
2010,04,15,10,23,13.80
2010,04,15,10,24,13.90
2010,04,15,10,25,13.90
2010,04,15,10,26,14.00
2010,04,15,10,27,14.10
2010,04,15,10,28,14.10
2010,04,15,10,29,13.90
2010,04,15,10,30,13.90
2010,04,15,10,31,13.90
2010,04,15,10,32,14.00
2010,04,15,10,33,14.10
2010,04,15,10,34,14.10
2010,04,15,10,35,14.20
2010,04,15,10,36,14.10
2010,04,15,10,37,14.10
2010,04,15,10,38,14.20
2010,04,15,10,39,14.30
2010,04,15,10,40,14.40
2010,04,15,10,41,14.40
2010,04,15,10,42,14.40
2010,04,15,10,43,14.50
2010,04,15,10,44,14.60
2010,04,15,10,45,14.60
2010,04,15,10,46,14.70
2010,04,15,10,47,14.70
2010,04,15,10,48,14.70
2010,04,15,10,49,14.60
2010,04,15,10,50,14.60
2010,04,15,10,51,14.50
2010,04,15,10,52,14.30
2010,04,15,10,53,14.10
2010,04,15,10,54,13.90
2010,04,15,10,55,13.70
2010,04,15,10,56,13.70
2010,04,15,10,57,13.60
2010,04,15,10,58,13.50
2010,04,15,10,59,13.50
2010,04,15,11,00,13.50
2010,04,15,11,01,13.50
2010,04,15,11,02,13.60
2010,04,15,11,03,13.60
2010,04,15,11,04,13.70
2010,04,15,11,05,13.70
2010,04,15,11,06,13.80
2010,04,15,11,07,13.90
2010,04,15,11,08,14.10
2010,04,15,11,09,14.20
2010,04,15,11,10,14.20
2010,04,15,11,11,14.20
2010,04,15,11,12,14.10
2010,04,15,11,13,14.10
2010,04,15,11,14,14.10
2010,04,15,11,15,14.10
2010,04,15,11,16,14.10
2010,04,15,11,17,14.10
2010,04,15,11,18,14.10
2010,04,15,11,19,14.10
2010,04,15,11,20,14.10
2010,04,15,11,21,14.10
2010,04,15,11,22,14.10
2010,04,15,11,23,14.10
2010,04,15,11,24,14.00
2010,04,15,11,25,14.10
2010,04,15,11,26,14.10
2010,04,15,11,27,14.00
2010,04,15,11,28,13.90
2010,04,15,11,29,13.90
2010,04,15,11,30,13.90
2010,04,15,11,31,13.80
2010,04,15,11,32,13.70
2010,04,15,11,33,13.70
2010,04,15,11,34,13.70
2010,04,15,11,35,13.60
2010,04,15,11,36,13.70
2010,04,15,11,37,13.70
2010,04,15,11,38,13.60
2010,04,15,11,39,13.50
2010,04,15,11,40,13.40
2010,04,15,11,41,13.30
2010,04,15,11,42,13.20
2010,04,15,11,43,13.20
2010,04,15,11,44,13.10
2010,04,15,11,45,12.90
2010,04,15,11,46,12.70
2010,04,15,11,47,12.60
2010,04,15,11,48,12.60
2010,04,15,11,49,12.60
2010,04,15,11,50,12.70
2010,04,15,11,51,12.70
2010,04,15,11,52,12.90
2010,04,15,11,53,13.10
2010,04,15,11,54,13.00
2010,04,15,11,55,12.90
2010,04,15,11,56,12.80
2010,04,15,11,57,12.70
2010,04,15,11,58,12.70
2010,04,15,11,59,12.60
2010,04,15,12,00,12.60
2010,04,15,12,01,12.50
2010,04,15,12,02,12.50
2010,04,15,12,03,12.40
2010,04,15,12,04,12.30
2010,04,15,12,05,12.20
2010,04,15,12,06,12.10
2010,04,15,12,07,12.00
2010,04,15,12,08,11.90
2010,04,15,12,09,12.00
2010,04,15,12,10,12.00
2010,04,15,12,11,12.00
2010,04,15,12,12,11.90
2010,04,15,12,13,11.90
2010,04,15,12,14,11.80
2010,04,15,12,15,11.80
2010,04,15,12,16,11.80
2010,04,15,12,17,11.80
2010,04,15,12,18,11.90
2010,04,15,12,19,12.00
2010,04,15,12,20,12.00
2010,04,15,12,21,11.90
2010,04,15,12,22,11.80
2010,04,15,12,23,11.80
2010,04,15,12,24,11.80
2010,04,15,12,25,11.80
2010,04,15,12,26,11.80
2010,04,15,12,27,11.80
2010,04,15,12,28,11.80
2010,04,15,12,29,11.80
2010,04,15,12,30,11.70
2010,04,15,12,31,11.70
2010,04,15,12,32,11.70
2010,04,15,12,33,11.70
2010,04,15,12,34,11.70
2010,04,15,12,35,11.70
2010,04,15,12,36,11.60
2010,04,15,12,37,11.50
2010,04,15,12,38,11.50
2010,04,15,12,39,11.50
2010,04,15,12,40,11.40
2010,04,15,12,41,11.40
2010,04,15,12,42,11.40
2010,04,15,12,43,11.40
2010,04,15,12,44,11.40
2010,04,15,12,45,11.30
2010,04,15,12,46,11.30
2010,04,15,12,47,11.30
2010,04,15,12,48,11.30
2010,04,15,12,49,11.30
2010,04,15,12,50,11.30
2010,04,15,12,51,11.30
2010,04,15,12,52,11.30
2010,04,15,12,53,11.30
2010,04,15,12,54,11.30
2010,04,15,12,55,11.30
2010,04,15,12,56,11.30
2010,04,15,12,57,11.40
2010,04,15,12,58,11.40
2010,04,15,12,59,11.40
2010,04,15,13,00,11.40
2010,04,15,13,01,11.40
2010,04,15,13,02,11.40
2010,04,15,13,03,11.40
2010,04,15,13,04,11.30
2010,04,15,13,05,11.30
2010,04,15,13,06,11.30
2010,04,15,13,07,11.30
2010,04,15,13,08,11.30
2010,04,15,13,09,11.30
2010,04,15,13,10,11.30
2010,04,15,13,11,11.30
2010,04,15,13,12,11.30
2010,04,15,13,13,11.30
2010,04,15,13,14,11.30
2010,04,15,13,15,11.30
2010,04,15,13,16,11.30
2010,04,15,13,17,11.30
2010,04,15,13,18,11.30
2010,04,15,13,19,11.30
2010,04,15,13,20,11.30
2010,04,15,13,21,11.30
2010,04,15,13,22,11.30
2010,04,15,13,23,11.30
2010,04,15,13,24,11.30
2010,04,15,13,25,11.30
2010,04,15,13,26,11.20
2010,04,15,13,27,11.20
2010,04,15,13,28,11.30
2010,04,15,13,29,11.30
2010,04,15,13,30,11.30
2010,04,15,13,31,11.30
2010,04,15,13,32,11.30
2010,04,15,13,33,11.30
2010,04,15,13,34,11.30
2010,04,15,13,35,11.30
2010,04,15,13,36,11.30
2010,04,15,13,37,11.30
2010,04,15,13,38,11.20
2010,04,15,13,39,11.20
2010,04,15,13,40,11.10
2010,04,15,13,41,11.10
2010,04,15,13,42,11.10
2010,04,15,13,43,11.10
2010,04,15,13,44,11.10
2010,04,15,13,45,11.00
2010,04,15,13,46,11.00
2010,04,15,13,47,11.00
2010,04,15,13,48,11.00
2010,04,15,13,49,11.00
2010,04,15,13,50,11.00
2010,04,15,13,51,10.90
2010,04,15,13,52,10.90
2010,04,15,13,53,11.00
2010,04,15,13,54,11.00
2010,04,15,13,55,10.90
2010,04,15,13,56,10.90
2010,04,15,13,57,10.80
2010,04,15,13,58,10.80
2010,04,15,13,59,10.80
2010,04,15,14,00,10.80
2010,04,15,14,01,10.70
2010,04,15,14,02,10.60
2010,04,15,14,03,10.60
2010,04,15,14,04,10.60
2010,04,15,14,05,10.60
2010,04,15,14,06,10.60
2010,04,15,14,07,10.60
2010,04,15,14,08,10.50
2010,04,15,14,09,10.50
2010,04,15,14,10,10.50
2010,04,15,14,11,10.40
2010,04,15,14,12,10.40
2010,04,15,14,13,10.40
2010,04,15,14,14,10.40
2010,04,15,14,15,10.40
2010,04,15,14,16,10.50
2010,04,15,14,17,10.50
2010,04,15,14,18,10.50
2010,04,15,14,19,10.60
2010,04,15,14,20,10.60
2010,04,15,14,21,10.70
2010,04,15,14,22,10.70
2010,04,15,14,23,10.70
2010,04,15,14,24,10.70
2010,04,15,14,25,10.80
2010,04,15,14,26,10.70
2010,04,15,14,27,10.70
2010,04,15,14,28,10.70
2010,04,15,14,29,10.70
2010,04,15,14,30,10.70
2010,04,15,14,31,10.80
2010,04,15,14,32,10.80
2010,04,15,14,33,10.90
2010,04,15,14,34,11.00
2010,04,15,14,35,11.10
2010,04,15,14,36,11.10
2010,04,15,14,37,11.20
2010,04,15,14,38,11.20
2010,04,15,14,39,11.20
2010,04,15,14,40,11.20
2010,04,15,14,41,11.30
2010,04,15,14,42,11.30
2010,04,15,14,43,11.40
2010,04,15,14,44,11.40
2010,04,15,14,45,11.40
2010,04,15,14,46,11.40
2010,04,15,14,47,11.40
2010,04,15,14,48,11.50
2010,04,15,14,49,11.60
2010,04,15,14,50,11.60
2010,04,15,14,51,11.70
2010,04,15,14,52,11.70
2010,04,15,14,53,11.70
2010,04,15,14,54,11.60
2010,04,15,14,55,11.60
2010,04,15,14,56,11.50
2010,04,15,14,57,11.50
2010,04,15,14,58,11.40
2010,04,15,14,59,11.40
2010,04,15,15,00,11.40
2010,04,15,15,01,11.40
2010,04,15,15,02,11.40
2010,04,15,15,03,11.40
2010,04,15,15,04,11.40
2010,04,15,15,05,11.40
2010,04,15,15,06,11.40
2010,04,15,15,07,11.50
2010,04,15,15,08,11.50
2010,04,15,15,09,11.60
2010,04,15,15,10,11.60
2010,04,15,15,11,11.60
2010,04,15,15,12,11.60
2010,04,15,15,13,11.50
2010,04,15,15,14,11.50
2010,04,15,15,15,11.60
2010,04,15,15,16,11.60
2010,04,15,15,17,11.60
2010,04,15,15,18,11.60
2010,04,15,15,19,11.60
2010,04,15,15,20,11.60
2010,04,15,15,21,11.60
2010,04,15,15,22,11.60
2010,04,15,15,23,11.70
2010,04,15,15,24,11.70
2010,04,15,15,25,11.70
2010,04,15,15,26,11.70
2010,04,15,15,27,11.70
2010,04,15,15,28,11.70
2010,04,15,15,29,11.70
2010,04,15,15,30,11.70
2010,04,15,15,31,11.60
2010,04,15,15,32,11.50
2010,04,15,15,33,11.40
2010,04,15,15,34,11.40
2010,04,15,15,35,11.30
2010,04,15,15,36,11.30
2010,04,15,15,37,11.20
2010,04,15,15,38,11.10
2010,04,15,15,39,11.00
2010,04,15,15,40,10.90
2010,04,15,15,41,10.90
2010,04,15,15,42,10.90
2010,04,15,15,43,10.80
2010,04,15,15,44,10.90
2010,04,15,15,45,10.80
2010,04,15,15,46,10.80
2010,04,15,15,47,10.80
2010,04,15,15,48,10.80
2010,04,15,15,49,10.80
2010,04,15,15,50,10.80
2010,04,15,15,51,10.80
2010,04,15,15,52,10.80
2010,04,15,15,53,10.80
2010,04,15,15,54,10.80
2010,04,15,15,55,10.80
2010,04,15,15,56,10.80
2010,04,15,15,57,10.90
2010,04,15,15,58,10.90
2010,04,15,15,59,11.00
2010,04,15,16,00,11.00
2010,04,15,16,01,11.10
2010,04,15,16,02,11.10
2010,04,15,16,03,11.20
2010,04,15,16,04,11.30
2010,04,15,16,05,11.40
2010,04,15,16,06,11.50
2010,04,15,16,07,11.60
2010,04,15,16,08,11.60
2010,04,15,16,09,11.80
2010,04,15,16,10,11.80
2010,04,15,16,11,11.90
2010,04,15,16,12,12.00
2010,04,15,16,13,12.20
2010,04,15,16,14,12.30
2010,04,15,16,15,12.40
2010,04,15,16,16,12.50
2010,04,15,16,17,12.60
2010,04,15,16,18,12.70
2010,04,15,16,19,12.80
2010,04,15,16,20,12.90
2010,04,15,16,21,12.90
2010,04,15,16,22,13.00
2010,04,15,16,23,13.10
2010,04,15,16,24,13.10
2010,04,15,16,25,13.20
2010,04,15,16,26,13.20
2010,04,15,16,27,13.30
2010,04,15,16,28,13.30
2010,04,15,16,29,13.30
2010,04,15,16,30,13.30
2010,04,15,16,31,13.30
2010,04,15,16,32,13.30
2010,04,15,16,33,13.30
2010,04,15,16,34,13.40
2010,04,15,16,35,13.40
2010,04,15,16,36,13.50
2010,04,15,16,37,13.60
2010,04,15,16,38,13.70
2010,04,15,16,39,13.70
2010,04,15,16,40,13.80
2010,04,15,16,41,13.80
2010,04,15,16,42,13.90
2010,04,15,16,43,14.00
2010,04,15,16,44,14.00
2010,04,15,16,45,14.10
2010,04,15,16,46,14.20
2010,04,15,16,47,14.30
2010,04,15,16,48,14.40
2010,04,15,16,49,14.50
2010,04,15,16,50,14.60
2010,04,15,16,51,14.70
2010,04,15,16,52,14.70
2010,04,15,16,53,14.70
2010,04,15,16,54,14.50
2010,04,15,16,55,14.40
2010,04,15,16,56,14.20
2010,04,15,16,57,14.10
2010,04,15,16,58,14.10
2010,04,15,16,59,14.00
2010,04,15,17,00,14.00
2010,04,15,17,01,13.90
2010,04,15,17,02,13.90
2010,04,15,17,03,13.80
2010,04,15,17,04,13.80
2010,04,15,17,05,13.80
2010,04,15,17,06,13.80
2010,04,15,17,07,13.80
2010,04,15,17,08,13.80
2010,04,15,17,09,13.90
2010,04,15,17,10,13.90
2010,04,15,17,11,14.00
2010,04,15,17,12,14.10
2010,04,15,17,13,14.10
2010,04,15,17,14,14.10
2010,04,15,17,15,14.10
2010,04,15,17,16,14.00
2010,04,15,17,17,13.90
2010,04,15,17,18,13.80
2010,04,15,17,19,13.70
2010,04,15,17,20,13.60
2010,04,15,17,21,13.50
2010,04,15,17,22,13.50
2010,04,15,17,23,13.40
2010,04,15,17,24,13.30
2010,04,15,17,25,13.30
2010,04,15,17,26,13.30
2010,04,15,17,27,13.30
2010,04,15,17,28,13.20
2010,04,15,17,29,13.10
2010,04,15,17,30,13.10
2010,04,15,17,31,13.00
2010,04,15,17,32,13.00
2010,04,15,17,33,12.90
2010,04,15,17,34,12.80
2010,04,15,17,35,12.80
2010,04,15,17,36,12.70
2010,04,15,17,37,12.70
2010,04,15,17,38,12.70
2010,04,15,17,39,12.70
2010,04,15,17,40,12.70
2010,04,15,17,41,12.70